False Pass, AK

11:27 AM AKDT on August 27, 2016 (GMT -0800)
False Pass

Weather History for PAKF - November, 2013

Change the Weather History Date:

Wednesday, November 6, 2013

  Actual Average (PACD) Record (PACD)
Temperature  
Mean Temperature 44 °F 36 °F  
Max Temperature 48 °F 41 °F 52 °F (2013)
Min Temperature 39 °F 31 °F 17 °F (2008)
Degree Days  
Heating Degree Days 22 29  
Month to date heating degree days 172  
Since 1 July heating degree days 2285  
Cooling Degree Days 0    
Month to date cooling degree days  
Year to date cooling degree days  
Moisture  
Dew Point 38 °F    
Average Humidity 79    
Maximum Humidity 93    
Minimum Humidity 65    
Precipitation  
Precipitation 0.99 in 0.16 in 2.52 in (1960)
Month to date precipitation 0.95  
Year to date precipitation 33.18  
Snow  
Snow 0.00 in 0.30 in 3.90 in (1975)
Month to date snowfall 1.4  
Since 1 July snowfall 3.8  
Since 1 September snowfall 3.8  
Snow Depth -    
Sea Level Pressure  
Sea Level Pressure 29.74 in    
Wind  
Wind Speed 22 mph (SSE)    
Max Wind Speed 40 mph    
Max Gust Speed 60 mph    
Visibility 8 miles    
Events Rain    
T = Trace of Precipitation, MM = Missing Value Source: NWS Daily Summary

Daily Weather History Graph

Daily Weather History Graph

Search for Another Location

Airport or City:

Trip Planner

Search our weather history database for the weather conditions in past years. The results will help you decide how hot, cold, wet, or windy it might be!

Date:

Astronomy

Nov. 06, 2013 Rise Set
Actual Time 8:08 AM HST 5:05 PM HST
Civil Twilight 7:28 AM HST 5:44 PM HST
Nautical Twilight 6:45 AM HST 6:28 PM HST
Astronomical Twilight 6:03 AM HST 7:10 PM HST
Moon 11:48 AM HST (11/6) 8:10 PM HST (11/6)
Length of Visible Light 10h 16m
Length of Day
8h 57m
Waxing Crescent, 15% of the Moon is Illuminated
Nov 6
Waxing Crescent
Nov 9
First Quarter
Nov 17
Full
Nov 25
Last Quarter
Dec 2
New

Hourly Weather History & Observations

Time (HST) Temp. Windchill Dew Point Humidity Pressure Visibility Wind Dir Wind Speed Gust Speed Precip Events Conditions
12:01 AM 43.0 °F 35.1 °F 34.0 °F 71% 30.01 in 10.0 mi SE 17.3 mph 28.8 mph N/A   Overcast
12:41 AM 42.8 °F 33.1 °F 35.6 °F 76% 29.98 in 10.0 mi SE 25.3 mph 35.7 mph N/A   Overcast
12:48 AM 42.8 °F 34.3 °F 33.8 °F 70% 29.98 in 10.0 mi SSE 19.6 mph 35.7 mph N/A   Overcast
1:01 AM 43.0 °F 34.8 °F 35.1 °F 74% 29.97 in 10.0 mi SE 18.4 mph 34.5 mph N/A   Overcast
2:01 AM 42.1 °F 33.1 °F 37.0 °F 82% 29.91 in 9.0 mi SE 20.7 mph 33.4 mph 0.01 in Rain Light Rain
3:01 AM 42.1 °F 31.7 °F 39.0 °F 89% 29.86 in 6.0 mi SE 27.6 mph 36.8 mph 0.08 in Rain Light Rain
3:42 AM 42.8 °F 32.9 °F 39.2 °F 87% 29.84 in 8.0 mi ESE 26.5 mph 32.2 mph 0.07 in Rain Light Rain
4:01 AM 43.0 °F 33.5 °F 39.9 °F 89% 29.81 in 5.0 mi ESE 24.2 mph 42.6 mph 0.11 in Rain Light Rain
5:01 AM 44.1 °F 33.0 °F 41.0 °F 89% 29.72 in 6.0 mi ESE 36.8 mph 48.3 mph 0.11 in Rain Light Rain
6:01 AM 44.1 °F 32.9 °F 42.1 °F 93% 29.94 in 4.0 mi ESE 38.0 mph 55.2 mph 0.11 in Rain Light Rain
7:01 AM 45.0 °F 36.0 °F 43.0 °F 93% 29.89 in 4.0 mi SE 25.3 mph 59.8 mph 0.12 in Rain Rain
8:01 AM 46.0 °F 39.0 °F 43.0 °F 89% 29.85 in 6.0 mi SE 17.3 mph 33.4 mph 0.21 in Rain Rain
8:16 AM 46.4 °F 37.7 °F 44.6 °F 93% 29.55 in 4.0 mi SE 26.5 mph 44.9 mph 0.03 in Rain Rain
8:28 AM 46.4 °F 39.2 °F 44.6 °F 93% 29.55 in 2.0 mi SE 18.4 mph 34.5 mph 0.06 in Rain Rain
9:01 AM 46.0 °F 38.0 °F 44.1 °F 93% 29.80 in 2.0 mi SE 21.9 mph 38.0 mph 0.13 in Rain Light Rain
9:21 AM 46.4 °F 38.1 °F 44.6 °F 93% 29.51 in 1.8 mi SE 24.2 mph 39.1 mph 0.01 in Rain Light Rain
9:39 AM 46.4 °F 37.5 °F 44.6 °F 93% 29.49 in 2.5 mi SSE 27.6 mph 48.3 mph 0.04 in Rain Rain
10:01 AM 46.4 °F 38.5 °F 44.6 °F 93% 29.48 in 3.0 mi South 21.9 mph 38.0 mph 0.05 in Rain Light Rain
10:12 AM 46.9 °F - 44.1 °F 90% 29.75 in 3.0 mi SSE 27.6 mph 41.4 mph 0.05 in Rain Light Rain
10:54 AM 48.2 °F - 41.0 °F 76% 29.46 in 9.0 mi SSE 26.5 mph 50.6 mph 0.01 in   Overcast
11:01 AM 48.0 °F - 39.9 °F 74% 29.73 in 10.0 mi SSE 32.2 mph 52.9 mph 0.01 in   Overcast
12:01 PM 48.0 °F - 37.9 °F 68% 29.73 in 10.0 mi SSE 27.6 mph 42.6 mph N/A   Overcast
1:01 PM 46.9 °F - 39.0 °F 74% 29.77 in 6.0 mi SSE 40.3 mph 50.6 mph 0.00 in Rain Light Rain
2:01 PM 46.9 °F - 37.9 °F 71% 29.75 in 8.0 mi SSE 39.1 mph 51.8 mph 0.00 in Rain Light Rain
3:01 PM 46.9 °F - 37.0 °F 68% 29.75 in 9.0 mi SSE 23.0 mph 44.9 mph 0.00 in   Overcast
4:01 PM 46.9 °F - 36.0 °F 66% 29.77 in 9.0 mi SSE 10.4 mph 29.9 mph N/A   Overcast
4:19 PM 46.4 °F 39.8 °F 37.4 °F 71% 29.50 in 7.0 mi SSE 16.1 mph 28.8 mph 0.00 in Rain Light Rain
4:46 PM 44.6 °F 37.4 °F 35.6 °F 71% 29.49 in 10.0 mi South 16.1 mph 31.1 mph 0.01 in Rain Light Rain
5:01 PM 45.0 °F 37.4 °F 35.1 °F 68% 29.78 in 10.0 mi South 18.4 mph 31.1 mph 0.01 in   Overcast
6:01 PM 45.0 °F 37.6 °F 36.0 °F 71% 29.79 in 10.0 mi SSE 17.3 mph 29.9 mph 0.00 in   Overcast
7:01 PM 44.1 °F 38.1 °F 35.1 °F 71% 29.80 in 10.0 mi SSE 11.5 mph 27.6 mph 0.00 in Rain Light Rain
7:28 PM 44.6 °F 38.8 °F 33.8 °F 66% 29.52 in 10.0 mi SSE 11.5 mph 24.2 mph 0.00 in   Overcast
7:35 PM 42.8 °F 34.3 °F 33.8 °F 70% 29.53 in 10.0 mi South 19.6 mph 27.6 mph 0.00 in   Overcast
7:46 PM 44.6 °F 38.8 °F 33.8 °F 66% 29.52 in 10.0 mi South 11.5 mph 25.3 mph 0.00 in Rain Light Rain
8:01 PM 43.0 °F 36.4 °F 34.0 °F 71% 29.81 in 10.0 mi SSE 12.7 mph 20.7 mph 0.00 in   Overcast
9:01 PM 42.1 °F 33.6 °F 35.1 °F 76% 29.81 in 10.0 mi SSE 18.4 mph 24.2 mph 0.00 in Rain Light Rain
10:01 PM 42.1 °F 36.1 °F 30.9 °F 65% 29.82 in 10.0 mi South 10.4 mph 18.4 mph 0.00 in   Clear
11:01 PM 39.0 °F 30.3 °F 33.1 °F 79% 29.87 in 8.0 mi SW 16.1 mph 32.2 mph 0.04 in Rain Light Rain
11:49 PM 39.2 °F 27.2 °F 30.2 °F 70% 29.58 in 10.0 mi WSW 31.1 mph 40.3 mph 0.01 in Rain Light Rain